[[{"header":{"parameterUnit":"m.s-1","parameterCategory":1,"la1":30.2991,"la2":30.254,"lo1":-89.0895,"lo2":-89.0444,"dy":0.0017,"dx":0.0017,"nx":28,"ny":28,"refTime":"2023-11-01T09:00:00:Z","depth":0,"parameterNumber":2,"parameterNumberName":"U-component_of_WINDS"},"data":[0,0,0,0,0,0,0,0,0,0,0,0,0,0,0,0,0,0,0,0,0,0,0,0,0,0,0,0,0,0,0,0,0,0,0,0,0,0,0,0,0,0,0,0,0,0,0,0,0,0,0,0,0,0,0,0,0,0,-4.3661,-4.3662,0,-4.3761,-4.3762,-4.3764,-4.3639,-4.3635,-4.363,-4.3626,-4.3729,-4.3735,-4.3742,0,0,0,0,0,0,0,0,0,0,0,0,0,-4.336,-4.3367,-4.3661,-4.3662,-4.3663,-4.3761,-4.3762,-4.3764,-4.364,-4.3634,-4.3629,-4.3624,-4.3726,-4.3734,-4.3743,0,0,0,0,0,0,0,0,0,0,0,0,0,-4.3479,-4.3369,-4.366,-4.3613,-4.361,-4.3761,-4.3762,-4.3764,-4.3641,-4.3634,-4.3627,-4.3621,-4.3723,-4.3734,-4.3744,-4.3946,0,0,-4.3776,-4.3781,0,0,0,0,0,0,0,0,-4.3472,-4.349,-4.3619,-4.3617,-4.3613,-4.3681,-4.3694,-4.3825,-4.3643,-4.3629,-4.3626,-4.3618,-4.3718,-4.3729,-4.3763,-4.3951,-4.3955,-4.3777,-4.3783,-4.3788,-4.3791,0,0,0,0,0,0,0,-4.3464,-4.3485,-4.37,-4.3621,-4.3618,-4.3587,-4.3596,-4.3718,-4.3711,-4.363,-4.3621,-4.3635,-4.3715,-4.3753,-4.3764,-4.3957,-4.3777,-4.3786,-4.3793,-4.3797,-4.4314,-4.4321,0,0,0,0,0,0,-4.3462,-4.3479,-4.3697,-4.3703,-4.3525,-4.3598,-4.3608,-4.3666,-4.3709,-4.3709,-4.3641,-4.3629,-4.3738,-4.3752,-4.3767,-4.4005,-4.3788,-4.3798,-4.3804,-4.4307,-4.4316,-4.4324,0,0,0,0,0,0,-4.3456,-4.3482,-4.3693,-4.3589,-4.3613,-4.361,-4.3676,-4.3672,-4.3709,-4.3717,-4.3715,-4.368,-4.3733,-4.3752,-4.3902,-4.4007,-4.3802,-4.3812,-4.4298,-4.431,-4.432,-4.4483,0,0,0,0,0,0,-4.3448,-4.3481,-4.3558,-4.3592,-4.3619,-4.3827,-4.3683,-4.3679,-4.3727,-4.3713,-4.3754,-4.3754,-4.3729,-4.3887,-4.3913,-4.4018,-4.382,-4.4289,-4.4303,-4.4316,-4.4469,-4.4499,-4.4525,0,0,0,0,0,-4.3437,-4.36,-4.3562,-4.3589,-4.3716,-4.3833,-4.3849,-4.3817,-4.3736,-4.3813,-4.3818,-4.3753,-4.3992,-4.3904,-4.3931,-4.4041,-4.4282,-4.4299,-4.4315,-4.4456,-4.4493,-4.4524,0,0,0,0,0,0,-4.3579,-4.3604,-4.3562,-4.3741,-4.3786,-4.3812,-4.3908,-4.3858,-4.3927,-4.391,-4.3868,-4.3878,-4.4037,-4.4054,-4.3956,-4.4238,-4.4123,-4.4146,-4.4221,-4.4256,-4.4283,-4.4275,-4.3829,0,0,0,0,0,-4.3631,-4.3725,-4.3741,-4.3897,-4.3922,-4.3912,-4.3962,-4.3934,-4.3979,-4.3997,-4.4013,-4.4059,-4.4144,-4.4201,-4.428,-4.4471,-4.4477,-4.456,-4.4588,-4.4611,-4.4631,-4.4731,-4.4768,-4.4379,-4.4379,-4.4379,0,0,-4.3739,-4.3764,-4.3826,-4.3927,-4.3958,-4.4056,-4.3929,-4.4038,-4.4109,-4.4013,-4.4155,-4.4169,-4.4218,-4.4388,-4.4464,-4.4407,-4.474,-4.4632,-4.4651,-4.4658,-4.4752,-4.4789,-4.4822,-4.439,-4.4388,-4.4387,0,0,-4.3986,-4.4016,-4.4148,-4.4182,-4.4231,-4.4223,-4.4256,-4.429,-4.4295,-4.4437,-4.4367,-4.4451,-4.46,-4.4636,-4.4675,-4.4936,-4.4877,-4.4963,-4.5108,-4.5207,-4.5238,-4.5264,-4.5356,-4.5389,-4.4983,-4.4984,-4.4984,0,-4.4114,-4.4258,-4.4222,-4.4336,-4.4381,-4.43,-4.4433,-4.4468,-4.4541,-4.4574,-4.4509,-4.4692,-4.472,-4.4897,-4.4961,-4.4995,-4.5029,-4.4957,-4.5236,-4.5263,-4.5287,-4.5374,-4.5409,-4.4993,-4.4992,-4.4991,-4.499,0,-4.4413,-4.4514,-4.4615,-4.4687,-4.4744,-4.4867,-4.4849,-4.4912,-4.4879,-4.4877,-4.5022,-4.5052,-4.5135,-4.5175,-4.5145,-4.5349,-4.5311,-4.5243,-4.5126,-4.5335,-4.5415,-4.5448,-4.5008,-4.5004,-4.5001,-4.4999,0,0,-4.475,-4.4801,-4.4838,-4.4869,-4.4918,-4.4995,-4.5115,-4.5196,-4.5249,-4.5303,-4.54,-4.5528,-4.5464,-4.5507,-4.548,-4.5567,-4.577,-4.5487,-4.5487,-4.5537,-4.5995,-4.6045,-4.6084,-4.5732,-4.5738,-4.5743,-4.599,0,-4.4995,-4.5201,-4.5172,-4.537,-4.5462,-4.5386,-4.549,-4.5531,-4.5533,-4.5611,-4.5614,-4.5704,-4.5614,-4.5639,-4.5722,-4.5728,-4.5861,-4.571,-4.5822,-4.5826,-4.581,-4.6126,-4.618,-4.6411,-4.6021,-4.6027,-4.6031,0,-4.5309,-4.5373,-4.558,-4.5614,-4.5651,-4.5745,-4.5816,-4.5893,-4.5937,-4.5933,-4.5982,-4.5939,-4.6057,-4.5941,-4.6103,-4.6001,-4.6045,-4.6055,-4.6063,-4.607,-4.5939,-4.614,-4.6484,-4.6518,-4.608,-4.6076,-4.6073,0,-4.5531,-4.567,-4.5811,-4.5841,-4.5884,-4.5951,-4.5973,-4.601,-4.6061,-4.6124,-4.6155,-4.6232,-4.6273,-4.6333,-4.6311,-4.6228,-4.6477,-4.6359,-4.6476,-4.6476,-4.6529,-4.6526,-4.6883,-4.6562,-4.6562,-4.6561,-4.6561,0,-4.5807,-4.5936,-4.5912,-4.5999,-4.6141,-4.6107,-4.6248,-4.626,-4.6295,-4.6382,-4.6322,-4.6405,-4.6372,-4.6453,-4.6438,-4.6573,-4.6593,-4.6592,-4.6585,-4.6596,-4.6596,-4.6623,-4.6605,-4.657,-4.6568,-4.6567,-4.6565,0,-4.6079,-4.6068,-4.6217,-4.6246,-4.6256,-4.6359,-4.6383,-4.6465,-4.6463,-4.6574,-4.6598,-4.6595,-4.6687,-4.6672,-4.6775,-4.6764,-4.6933,-4.6908,-4.6917,-4.6911,-4.7027,-4.7016,-4.7412,-4.7462,-4.7112,-4.7115,-4.7118,0,-4.6254,-4.6352,-4.6391,-4.6445,-4.6471,-4.656,-4.661,-4.6581,-4.6636,-4.6694,-4.6768,-4.6855,-4.6923,-4.7074,-4.708,-4.7158,-4.7134,-4.7267,-4.7145,-4.7152,-4.7133,-4.7127,-4.7135,-4.7291,-4.7295,-4.7298,-4.7301,0,-4.6566,-4.6556,-4.6632,-4.6706,-4.6769,-4.6826,-4.6877,-4.6925,-4.6899,-4.6965,-4.7058,-4.7111,-4.7215,-4.7302,-4.7375,-4.7396,-4.7344,-4.734,-4.737,-4.7381,-4.7381,-4.738,-4.6981,-4.733,-4.7327,-4.7325,-4.7323,-4.7322,-4.6794,-4.6876,-4.6916,-4.7003,-4.7038,-4.7087,-4.7164,-4.7172,-4.7249,-4.7332,-4.731,-4.7416,-4.7457,-4.755,-4.7579,-4.7661,-4.7612,-4.7657,-4.7668,-4.7679,-4.7691,-4.737,-4.7675,-4.7674,-4.7673,-4.7672,-4.7672,0,-4.71,-4.7123,-4.7202,-4.7275,-4.7343,-4.729,-4.7343,-4.7403,-4.7497,-4.754,-4.7608,-4.7715,-4.7799,-4.7813,-4.7892,-4.7955,-4.7933,-4.7977,-4.7971,-4.7976,-4.7732,-4.7697,-4.7993,-4.7993,-4.7993,-4.7993,-4.7993,-4.7993,-4.7268,-4.7404,-4.7399,-4.7551,-4.7573,-4.7676,-4.7711,-4.7755,-4.7789,-4.7912,-4.7981,-4.7989,-4.8021,-4.8102,-4.8176,-4.8178,-4.8209,-4.8261,-4.8254,-4.8025,-4.7993,-4.7963,-4.7929,-4.8269,-4.8269,-4.849,-4.8492,-4.8494]},{"header":{"parameterUnit":"m.s-1","parameterCategory":1,"la1":30.2991,"la2":30.254,"lo1":-89.0895,"lo2":-89.0444,"dy":0.0017,"dx":0.0017,"nx":28,"ny":28,"refTime":"2023-11-01T09:00:00:Z","depth":0,"parameterNumber":3,"parameterNumberName":"V-component_of_WINDS"},"data":[0,0,0,0,0,0,0,0,0,0,0,0,0,0,0,0,0,0,0,0,0,0,0,0,0,0,0,0,0,0,0,0,0,0,0,0,0,0,0,0,0,0,0,0,0,0,0,0,0,0,0,0,0,0,0,0,0,0,-1.6106,-1.6106,0,-1.6067,-1.6066,-1.6066,-1.6097,-1.6098,-1.6099,-1.6101,-1.6057,-1.6055,-1.6053,0,0,0,0,0,0,0,0,0,0,0,0,0,-1.6204,-1.6202,-1.6106,-1.6106,-1.6105,-1.6067,-1.6066,-1.6066,-1.6096,-1.6098,-1.61,-1.6101,-1.6058,-1.6055,-1.6052,0,0,0,0,0,0,0,0,0,0,0,0,0,-1.6163,-1.6201,-1.6106,-1.6116,-1.6117,-1.6067,-1.6066,-1.6066,-1.6096,-1.6098,-1.61,-1.6102,-1.6059,-1.6056,-1.6052,-1.599,0,0,-1.6041,-1.6039,0,0,0,0,0,0,0,0,-1.6165,-1.6159,-1.6115,-1.6115,-1.6116,-1.6089,-1.6085,-1.604,-1.6096,-1.6104,-1.6101,-1.6103,-1.6066,-1.6062,-1.605,-1.5988,-1.5986,-1.6041,-1.6039,-1.6037,-1.6036,0,0,0,0,0,0,0,-1.6168,-1.6161,-1.6091,-1.6114,-1.6115,-1.6121,-1.6117,-1.6077,-1.6074,-1.6103,-1.6105,-1.61,-1.6067,-1.6053,-1.6049,-1.5985,-1.6041,-1.6038,-1.6035,-1.6034,-1.5866,-1.5863,0,0,0,0,0,0,-1.617,-1.6163,-1.6092,-1.6089,-1.6146,-1.6118,-1.6114,-1.6095,-1.6075,-1.6073,-1.6099,-1.6102,-1.6059,-1.6053,-1.6048,-1.597,-1.6037,-1.6034,-1.6032,-1.5868,-1.5865,-1.5863,0,0,0,0,0,0,-1.6172,-1.6164,-1.6094,-1.6127,-1.6118,-1.6114,-1.6093,-1.6094,-1.6081,-1.6071,-1.6071,-1.6086,-1.606,-1.6053,-1.6003,-1.5969,-1.6032,-1.6029,-1.5871,-1.5867,-1.5864,-1.5816,0,0,0,0,0,0,-1.6175,-1.6164,-1.6142,-1.6126,-1.6116,-1.6051,-1.6091,-1.6091,-1.6075,-1.6078,-1.6059,-1.6058,-1.6061,-1.6008,-1.6,-1.5965,-1.6026,-1.5874,-1.5869,-1.5865,-1.5821,-1.5812,-1.5804,0,0,0,0,0,-1.6178,-1.613,-1.614,-1.6132,-1.6088,-1.6049,-1.6043,-1.6048,-1.6072,-1.6048,-1.6042,-1.6059,-1.5975,-1.6003,-1.5994,-1.5958,-1.5876,-1.587,-1.5865,-1.5825,-1.5813,-1.5804,0,0,0,0,0,0,-1.6141,-1.6128,-1.6139,-1.6085,-1.6068,-1.6054,-1.6024,-1.6037,-1.6012,-1.6016,-1.6024,-1.6019,-1.5966,-1.5957,-1.5989,-1.5894,-1.5929,-1.5921,-1.5901,-1.5891,-1.5882,-1.5884,-1.6023,0,0,0,0,0,-1.6127,-1.6097,-1.6087,-1.604,-1.6031,-1.6029,-1.6012,-1.6018,-1.5999,-1.5992,-1.5982,-1.5963,-1.5932,-1.5911,-1.5883,-1.5821,-1.5815,-1.5791,-1.5783,-1.5776,-1.5768,-1.573,-1.5718,-1.5845,-1.5845,-1.5846,0,0,-1.6097,-1.6086,-1.6067,-1.6032,-1.602,-1.5986,-1.6023,-1.5987,-1.5961,-1.5986,-1.5938,-1.593,-1.5909,-1.5851,-1.5826,-1.5843,-1.5732,-1.5769,-1.5764,-1.576,-1.5724,-1.5712,-1.5701,-1.5842,-1.5843,-1.5843,0,0,-1.6024,-1.6015,-1.5972,-1.5959,-1.5939,-1.5937,-1.5927,-1.5911,-1.5906,-1.5858,-1.5875,-1.5845,-1.5793,-1.5775,-1.576,-1.5678,-1.5691,-1.5669,-1.5623,-1.5586,-1.5576,-1.5567,-1.5534,-1.5522,-1.5662,-1.5662,-1.5662,0,-1.5989,-1.594,-1.5949,-1.5911,-1.5893,-1.5915,-1.5871,-1.5857,-1.5828,-1.5815,-1.5835,-1.5767,-1.5755,-1.5692,-1.5671,-1.566,-1.5646,-1.567,-1.5577,-1.5568,-1.556,-1.5528,-1.5516,-1.5659,-1.5659,-1.566,-1.566,0,-1.5896,-1.5862,-1.583,-1.5801,-1.5781,-1.574,-1.574,-1.5718,-1.5725,-1.5721,-1.567,-1.5656,-1.5623,-1.5609,-1.5616,-1.5546,-1.5556,-1.5577,-1.5611,-1.5545,-1.5515,-1.5503,-1.5655,-1.5656,-1.5657,-1.5658,0,0,-1.5798,-1.5773,-1.5761,-1.5747,-1.5726,-1.5698,-1.5657,-1.5626,-1.5605,-1.5584,-1.5547,-1.5502,-1.5519,-1.5502,-1.5507,-1.5475,-1.5406,-1.5499,-1.5498,-1.5478,-1.5323,-1.5305,-1.5291,-1.5416,-1.5414,-1.5412,-1.5323,0,-1.5721,-1.565,-1.5655,-1.5587,-1.5553,-1.5573,-1.5536,-1.5518,-1.5513,-1.5482,-1.5477,-1.5442,-1.5471,-1.546,-1.5429,-1.5421,-1.5374,-1.5428,-1.5378,-1.5376,-1.5379,-1.5276,-1.5257,-1.5174,-1.5312,-1.531,-1.5309,0,-1.5622,-1.5596,-1.5525,-1.5505,-1.5491,-1.5459,-1.5428,-1.54,-1.5379,-1.5377,-1.5356,-1.5366,-1.5321,-1.5359,-1.5296,-1.5332,-1.5313,-1.5305,-1.5302,-1.5295,-1.5336,-1.5262,-1.5148,-1.5134,-1.5291,-1.5293,-1.5294,0,-1.5552,-1.5501,-1.545,-1.5438,-1.5415,-1.5391,-1.538,-1.5361,-1.534,-1.5314,-1.5299,-1.5268,-1.525,-1.5224,-1.5224,-1.5252,-1.5158,-1.5197,-1.5153,-1.5152,-1.5129,-1.513,-1.5007,-1.5123,-1.5123,-1.5124,-1.5124,0,-1.5463,-1.5417,-1.5418,-1.5386,-1.5335,-1.5341,-1.5289,-1.5281,-1.5263,-1.5228,-1.5245,-1.5211,-1.5215,-1.5181,-1.5181,-1.5126,-1.5119,-1.5114,-1.5113,-1.511,-1.511,-1.5095,-1.5099,-1.512,-1.5121,-1.5122,-1.5122,0,-1.5375,-1.5375,-1.532,-1.5303,-1.5297,-1.5259,-1.5243,-1.5212,-1.5209,-1.5164,-1.5154,-1.5147,-1.5108,-1.5106,-1.5061,-1.506,-1.4992,-1.5001,-1.4999,-1.4999,-1.4953,-1.4956,-1.4813,-1.4792,-1.4926,-1.4924,-1.4923,0,-1.5317,-1.5282,-1.526,-1.5239,-1.5226,-1.5191,-1.517,-1.5174,-1.5151,-1.5122,-1.5094,-1.5056,-1.5025,-1.4961,-1.4951,-1.4915,-1.492,-1.4872,-1.4915,-1.4911,-1.4914,-1.4914,-1.4909,-1.4863,-1.4861,-1.486,-1.4859,0,-1.5212,-1.5213,-1.5182,-1.5149,-1.5123,-1.5098,-1.5075,-1.5056,-1.5057,-1.503,-1.4989,-1.4966,-1.4919,-1.4879,-1.4844,-1.4832,-1.4843,-1.4846,-1.4833,-1.4827,-1.4826,-1.4822,-1.4972,-1.4849,-1.485,-1.4851,-1.4851,-1.4852,-1.5134,-1.5102,-1.5081,-1.5045,-1.5028,-1.5005,-1.4974,-1.4966,-1.4932,-1.4894,-1.4899,-1.4853,-1.483,-1.4784,-1.4768,-1.4731,-1.4747,-1.4729,-1.4724,-1.4718,-1.4711,-1.4835,-1.4725,-1.4726,-1.4726,-1.4726,-1.4726,0,-1.5026,-1.5013,-1.498,-1.4946,-1.4917,-1.4933,-1.4908,-1.4881,-1.4841,-1.4819,-1.4788,-1.474,-1.4701,-1.4688,-1.4649,-1.4622,-1.4626,-1.4611,-1.4611,-1.4607,-1.4702,-1.4715,-1.4608,-1.4608,-1.4608,-1.4608,-1.4608,-1.4608,-1.4966,-1.4912,-1.491,-1.4846,-1.4833,-1.4788,-1.4772,-1.475,-1.4731,-1.4677,-1.4645,-1.4637,-1.4617,-1.4577,-1.4541,-1.4538,-1.4521,-1.4503,-1.4501,-1.4589,-1.4601,-1.4612,-1.4624,-1.45,-1.45,-1.4409,-1.4408,-1.4408]}]]